This is the latest recevied weather packets stored in our database for station/object KD7CTY. If no packets are shown the sender has not sent any weather packets the latest 10 day(s).
| Time | Temp. | Humidity | Pressure | Rain* | Wind** | Luminosity | Snow |
|---|---|---|---|---|---|---|---|
| 1788546592 | 17.78° C | 72% | 1012.9 hPa | 0 mm | - | 722 W/m² | - |
| 1788546287 | 17.78° C | 72% | 1012.8 hPa | 0 mm | - | 695 W/m² | - |
| 1788545987 | 17.78° C | 72% | 1012.7 hPa | 0 mm | - | 677 W/m² | - |
| 1788545683 | 17.78° C | 72% | 1012.7 hPa | 0 mm | - | 690 W/m² | - |
| 1788545378 | 18.33° C | 75% | 1012.7 hPa | 0 mm | - | 720 W/m² | - |
| 1788545073 | 17.22° C | 77% | 1012.8 hPa | 0 mm | - | 775 W/m² | - |
| 1788544767 | 15.56° C | 81% | 1012.7 hPa | 0 mm | - | 520 W/m² | - |
| 1788544466 | 15.56° C | 82% | 1012.9 hPa | 0 mm | - | 482 W/m² | - |
| 1788544166 | 15° C | 83% | 1012.8 hPa | 0 mm | - | 143 W/m² | - |
| 1788543861 | 15.56° C | 82% | 1012.9 hPa | 0 mm | - | 110 W/m² | - |
| 1788543557 | 15.56° C | 82% | 1013.2 hPa | 0 mm | - | 137 W/m² | - |
| 1788543247 | 15.56° C | 83% | 1012.9 hPa | 0 mm | - | 190 W/m² | - |
| 1788542942 | 15° C | 83% | 1012.9 hPa | 0 mm | - | 208 W/m² | - |
| 1788542641 | 15° C | 83% | 1012.9 hPa | 0 mm | - | 209 W/m² | - |
| 1788542336 | 15° C | 84% | 1012.9 hPa | 0 mm | - | 163 W/m² | - |
| 1788542031 | 15° C | 85% | 1012.7 hPa | 0 mm | - | 148 W/m² | - |
| 1788541728 | 14.44° C | 85% | 1013 hPa | 0 mm | - | 154 W/m² | - |
| 1788541423 | 14.44° C | 85% | 1012.8 hPa | 0 mm | - | 148 W/m² | - |
| 1788541118 | 14.44° C | 86% | 1012.8 hPa | 0 mm | - | 149 W/m² | - |
| 1788540811 | 14.44° C | 86% | 1012.7 hPa | 0 mm | - | 144 W/m² | - |
| 1788540507 | 14.44° C | 87% | 1012.8 hPa | 0 mm | - | 157 W/m² | - |
| 1788540201 | 13.89° C | 87% | 1013 hPa | 0 mm | - | 173 W/m² | - |
| 1788539898 | 13.89° C | 88% | 1012.8 hPa | 0 mm | - | 133 W/m² | - |
| 1788539598 | 13.33° C | 89% | 1012.8 hPa | 0 mm | - | 140 W/m² | - |
| 1788539297 | 13.33° C | 89% | 1012.7 hPa | 0 mm | - | 114 W/m² | - |
* Rain latest hour (hover to see other rain measurements)
** Current wind speed in m/s (hover to see current wind gust speed)